Location: Darlington Observatory
(36.4817°N, 105.8156°W)
Time: 18:12:45
(UTC-07:00)

NOSS 3-3 (A) - Visible Passes

Search period start: 25 November 2014 00:00
Search period end: 05 December 2014 00:00
Orbit: 965 x 1248 km, 63.4° (Epoch: 25 November)

Date Brightness Start Highest point End Pass type
(mag) Time Alt. Az. Time Alt. Az. Time Alt. Az.
28 Nov 6.4 06:25:47 10° N 06:29:52 15° NE 06:34:02 10° ENE visible
29 Nov 6.6 05:42:42 10° NNE 05:44:22 11° NNE 05:46:02 10° NE visible
01 Dec 6.3 06:02:17 10° N 06:07:17 19° NE 06:12:26 10° E visible
02 Dec 6.5 05:18:33 10° N 05:21:54 13° NNE 05:25:20 10° ENE visible
03 Dec 5.7 06:23:07 10° NNW 06:29:44 35° NE 06:36:36 10° ESE visible
04 Dec 6.2 05:38:55 10° N 05:44:39 24° NE 05:50:35 10° E visible
